This is the latest recevied weather packets stored in our database for station/object N8HON. If no packets are shown the sender has not sent any weather packets the latest 10 day(s).
| Time | Temp. | Humidity | Pressure | Rain* | Wind** | Luminosity | Snow |
|---|---|---|---|---|---|---|---|
| 1777745462 | 11.67° C | 44% | 1011.8 hPa | 0 mm | - | 901 W/m² | - |
| 1777745158 | 11.67° C | 44% | 1011.8 hPa | 0 mm | - | 474 W/m² | - |
| 1777744855 | 11.67° C | 49% | 1011.7 hPa | 0 mm | - | 372 W/m² | - |
| 1777744549 | 12.22° C | 42% | 1012 hPa | 0 mm | - | 874 W/m² | - |
| 1777744245 | 10.56° C | 46% | 1012 hPa | 0 mm | - | 658 W/m² | - |
| 1777743943 | 11.11° C | 47% | 1012 hPa | 0 mm | - | 248 W/m² | - |
| 1777743639 | 11.67° C | 48% | 1012 hPa | 0 mm | - | 259 W/m² | - |
| 1777743337 | 10° C | 51% | 1012 hPa | 0 mm | - | 306 W/m² | - |
| 1777743035 | 10° C | 48% | 1012.1 hPa | 0 mm | - | 257 W/m² | - |
| 1777742732 | 10° C | 46% | 1012.1 hPa | 0 mm | - | 257 W/m² | - |
| 1777742428 | 10.56° C | 53% | 1012.1 hPa | 0 mm | - | 759 W/m² | - |
| 1777742123 | 10.56° C | 47% | 1012.2 hPa | 0 mm | - | 238 W/m² | - |
| 1777741821 | 11.11° C | 48% | 1012.2 hPa | 0 mm | - | 305 W/m² | - |
| 1777741517 | 11.11° C | 46% | 1012.3 hPa | 0 mm | - | 831 W/m² | - |
| 1777741214 | 10.56° C | 53% | 1012.4 hPa | 0 mm | - | 362 W/m² | - |
| 1777740911 | 10° C | 48% | 1012.3 hPa | 0 mm | - | 333 W/m² | - |
| 1777740608 | 10° C | 50% | 1012.1 hPa | 0 mm | - | 250 W/m² | - |
| 1777740304 | 10.56° C | 46% | 1012.3 hPa | 0 mm | - | 258 W/m² | - |
| 1777740001 | 10° C | 48% | 1012.1 hPa | 0 mm | - | 849 W/m² | - |
| 1777739696 | 10° C | 47% | 1012.2 hPa | 0 mm | - | 298 W/m² | - |
| 1777739394 | 10.56° C | 44% | 1012.3 hPa | 0 mm | - | 302 W/m² | - |
| 1777739091 | 10.56° C | 45% | 1012.4 hPa | 0 mm | - | 580 W/m² | - |
| 1777738788 | 10.56° C | 46% | 1012.4 hPa | 0 mm | - | 655 W/m² | - |
| 1777738484 | 10° C | 46% | 1012.4 hPa | 0 mm | - | 318 W/m² | - |
| 1777738183 | 10° C | 46% | 1012.5 hPa | 0 mm | - | 265 W/m² | - |
* Rain latest hour (hover to see other rain measurements)
** Current wind speed in m/s (hover to see current wind gust speed)